#timestamp,LO_Frequency,Hit 
1505973615.2,286046997.5,N
1505973635.0,286046996.9,N
1505973635.9,286046996.9,N
1505973655.8,286046998.4,N
1505973675.6,286046995.0,N
1505973695.4,286046999.6,N
1505973715.3,286046997.8,N
1505973735.1,286046995.8,N
1505973755.8,286046994.1,N
1505973775.7,286046995.4,N
1505973795.5,286046997.7,N
1505973815.3,286047000.9,N
1505973835.2,286047003.5,N
1505973855.9,286047004.6,N
1505973875.7,286047000.1,N
1505973895.5,286046998.9,N
1505973915.4,286046999.3,N
1505973935.2,286046997.7,N
1505973955.0,286046993.4,N
1505973955.9,286046993.4,N
1505973975.8,286046995.2,N
1505973995.6,286046999.6,N
1505974015.4,286046997.1,N
1505974035.3,286046995.7,N
1505974055.1,286046994.6,N
1505974075.8,286046992.2,N
1505974095.7,286046994.0,N
1505974115.5,286046994.9,N
1505974135.3,286046999.2,N
1505974155.2,286046999.2,N
1505974175.9,286047002.7,N
1505974195.7,286046996.5,N
1505974215.6,286046998.4,N
1505974235.4,286046999.9,N
1505974255.2,286046996.7,N
1505974275.1,286046999.4,N
1505974276.0,286046999.4,N
1505974295.8,286046997.2,N
1505974315.6,286046995.7,N
1505974335.4,286046993.5,N
1505974355.3,286046995.9,N
1505974375.1,286046994.0,N
1505974395.8,286046995.2,N
1505974415.7,286046995.9,N
1505974435.5,286046994.8,N
1505974455.3,286046993.9,N
1505974475.2,286046993.2,N
1505974495.9,286046988.5,P
1505974515.7,286046994.1,N
1505974535.6,286046995.5,N
1505974555.4,286046996.8,N
1505974575.2,286046998.0,N
1505974595.1,286046998.8,N
1505974596.0,286046998.8,N
1505974615.8,286046999.7,N
1505974635.6,286047001.8,N
1505974655.5,286047000.0,N
1505974675.3,286046998.2,N
1505974695.1,286046999.9,N
1505974715.9,286046999.8,N
1505974735.7,286047002.3,N
1505974755.5,286047000.0,N
1505974775.3,286046999.1,N
1505974795.2,286047000.8,N
1505974815.0,286046999.5,N
1505974815.9,286046999.5,N
1505974835.7,286046996.5,N
1505974855.6,286046995.3,N
1505974875.4,286046996.2,N
1505974895.2,286046997.5,N
1505974915.1,286047002.6,N
1505974916.0,286047002.6,N
1505974935.8,286047003.4,N
1505974955.6,286047002.2,N
1505974975.5,286047000.0,N
1505974995.3,286046998.6,N
1505975015.1,286046998.8,N
1505975035.9,286047000.4,N
1505975055.7,286047004.0,N
1505975075.5,286047004.9,N
1505975095.3,286047005.9,N
1505975115.2,286047001.9,N
1505975135.0,286047000.1,N
1505975135.9,286047000.1,N
1505975155.7,286047004.0,N
1505975175.6,286047008.9,P
1505975195.4,286047009.7,N
1505975215.2,286047006.1,N
1505975235.1,286047004.3,N
1505975236.0,286047004.3,N
1505975255.8,286046999.8,N
1505975275.6,286046999.8,N
1505975295.5,286046998.1,N
1505975315.3,286046998.6,N
1505975335.1,286047004.0,N
1505975355.9,286047005.1,N
1505975375.7,286047007.6,N
1505975395.5,286047007.0,N
1505975415.4,286047008.8,N
1505975435.2,286047010.3,N
1505975455.0,286047009.7,N
1505975455.9,286047009.7,N
1505975475.8,286047014.8,P
1505975495.6,286047008.2,N
1505975515.4,286047009.9,N
1505975535.3,286047007.9,N
1505975555.1,286047008.7,N
1505975556.0,286047008.7,N
1505975575.8,286047007.6,N
1505975595.7,286047007.6,N
1505975615.5,286047006.9,N
1505975635.3,286047005.7,N
1505975655.2,286047008.1,P
1505975675.9,286047001.0,P
1505975695.7,286047001.2,N
1505975715.6,286046999.5,N
1505975735.4,286046999.2,N
1505975755.2,286046998.8,N
1505975775.0,286046998.6,N
1505975775.9,286046998.6,N
1505975795.8,286046999.9,N
1505975815.6,286047004.2,N
1505975835.4,286047002.8,N
1505975855.3,286046997.4,N
1505975875.1,286046998.3,N
1505975895.8,286046999.5,N
1505975915.7,286046997.1,N
1505975935.5,286046998.7,N
1505975955.3,286046998.6,N
1505975975.2,286046998.1,N
1505975995.9,286046998.6,N
1505976015.7,286047003.8,N
1505976035.5,286047005.8,N
1505976055.4,286047004.4,N
1505976075.2,286047004.4,N
1505976095.0,286047002.7,N
1505976095.9,286047002.7,N
1505976115.8,286047000.4,N
1505976135.6,286046998.2,N
1505976155.4,286047000.4,N
1505976175.3,286046998.4,N
1505976195.1,286046999.5,N
1505976196.0,286046999.5,N
1505976215.8,286046998.6,N
1505976235.7,286047000.8,N
1505976255.5,286046998.7,N
1505976275.3,286046996.5,N
1505976295.2,286046994.9,N
1505976315.9,286046994.5,N
1505976335.7,286046995.1,N
1505976355.5,286046996.5,N
1505976375.4,286046998.8,N
1505976395.2,286047001.2,N
1505976415.0,286046998.2,N
1505976415.9,286046998.2,N
1505976435.8,286046998.9,N
1505976455.6,286046998.8,N
1505976475.4,286046998.7,N
1505976495.3,286046996.5,N
1505976515.1,286046996.6,N
1505976535.8,286046997.0,N
1505976555.7,286046995.9,N
1505976575.5,286046992.5,N
1505976595.3,286046992.2,N
1505976615.2,286046997.4,N
1505976635.9,286046995.3,N
1505976655.7,286046997.1,N
1505976675.6,286046998.6,N
1505976695.4,286046998.8,N
1505976715.2,286047000.3,N
1505976735.0,286047002.6,N
1505976735.9,286047002.6,N
1505976755.8,286046999.3,N
1505976775.6,286046997.1,N
1505976795.4,286046996.7,N
1505976815.3,286046997.5,N
1505976835.1,286046995.1,N
1505976855.8,286046995.7,N
1505976875.7,286046997.4,N
1505976895.5,286046996.2,N
1505976915.3,286046996.6,N
1505976935.2,286046998.3,N
1505976955.9,286046998.7,N
1505976975.7,286046997.8,N
1505976995.6,286046993.3,P
1505977015.4,286046997.1,N
1505977035.2,286046999.6,N
1505977055.1,286047002.8,N
1505977056.0,286047002.8,N
1505977075.8,286047002.8,N
1505977095.6,286047001.2,N
1505977115.5,286046998.6,N
1505977135.3,286047000.0,N
1505977155.1,286047000.4,N
1505977175.9,286047002.4,N
1505977195.7,286047002.9,N
